Find PREFIRE 2

NORAD ID: 59881 Int'l Des: 2024-099 Owner: JPL Country: US operational
LEOCIRCULARRETROGRADESSO

リアルタイム位置

3D地球を読み込み中...

PREFIRE 2について

説明を読み込み中...

次回通過

Passes for default location (London). Set your location on the main map for personalized predictions.

高度履歴

Loading altitude history...

軌道要素

1 59881U 24099A 26106.54567539 .00002306 00000-0 10806-3 0 9993
2 59881 97.4155 323.7540 0013694 65.2155 295.0503 15.20629464104766
Epoch: Apr 16, 2026 • Age: 16 hours

現在のステータス

高度 508.1 km
速度 7.62 km/s
衛星直下点 77.96°N, 3.07°E
打ち上げ日 May 25, 2024
運用期間 1.8 years
タイプ other

技術仕様

分類 Payload
質量 10.00 kg
乾燥質量 10.00 kg
総質量 10.00 kg
長さ 0.30 m
直径 0.20 m
スパン 12.70 m
形状 Box+sail
製造者 JPL
バスタイプ Cubesat 6U
フェーズステータス In Orbit
所有者/国 JPL/US

Most Searched